EW4115 Weather Reports


Display with metric or nautical units.
time (UTC)temp
F
wind
direction
speed
MPH
gust
MPH
rain 1hr
in
rain 24hr
in
rain mn
in
humidity
%
barometer
mb
20260901133103 94 99 4.0 16.0 0.00 0.00 0.00 33 1012.4
20260901131603 94 19 4.0 11.0 0.00 0.00 0.00 32 1012.4
20260901130056 94 93 4.0 15.0 0.00 0.00 0.00 32 1012.4
20260901124555 94 15 3.0 10.0 0.00 0.00 0.00 32 1012.6
20260901123057 94 350 3.0 8.0 0.00 0.00 0.00 31 1012.9
20260901121549 94 66 2.0 10.0 0.00 0.00 0.00 31 1013.1
20260901120046 94 10 2.0 10.0 0.00 0.00 0.00 31 1013.0
20260901114544 94 8 3.0 10.0 0.00 0.00 0.00 31 1013.0
20260901113037 93 87 3.0 9.0 0.00 0.00 0.00 32 1013.1
20260901111537 93 329 5.0 14.0 0.00 0.00 0.00 32 1013.2
20260901110033 93 330 4.0 11.0 0.00 0.00 0.00 33 1013.2
20260901104606 92 83 3.0 14.0 0.00 0.00 0.00 32 1013.2
20260901103023 92 339 5.0 14.0 0.00 0.00 0.00 32 1013.3
20260901101608 92 314 3.0 11.0 0.00 0.00 0.00 32 1013.5
20260901100034 92 339 3.0 12.0 0.00 0.00 0.00 34 1013.4
20260901094623 92 60 3.0 11.0 0.00 0.00 0.00 34 1013.5
20260901093047 91 328 3.0 13.0 0.00 0.00 0.00 35 1013.5
20260901091510 91 4 3.0 10.0 0.00 0.00 0.00 36 1013.5
20260901090101 90 85 5.0 14.0 0.00 0.00 0.00 35 1013.5
20260901084518 90 21 3.0 13.0 0.00 0.00 0.00 37 1013.5
20260901083106 89 92 4.0 9.0 0.00 0.00 0.00 37 1013.5
20260901081524 89 318 5.0 11.0 0.00 0.00 0.00 38 1013.5
20260901080116 88 114 4.0 9.0 0.00 0.00 0.00 39 1013.4
20260901074539 87 301 4.0 11.0 0.00 0.00 0.00 41 1013.4
20260901073131 87 59 2.0 12.0 0.00 0.00 0.00 43 1013.4
20260901071556 87 355 4.0 10.0 0.00 0.00 0.00 41 1013.3
20260901070012 87 360 2.0 6.0 0.00 0.00 0.00 41 1013.1
20260901064600 87 324 1.0 5.0 0.00 0.00 0.00 43 1013.1
20260901063027 86 12 1.0 5.0 0.00 0.00 0.00 44 1013.1
20260901061611 85 7 1.0 3.0 0.00 0.00 0.00 45 1013.2
20260901060028 84 7 0.0 3.0 0.00 0.00 0.00 46 1013.2
20260901054618 83 10 0.0 2.0 0.00 0.00 0.00 47 1013.3
20260901053045 82 10 0.0 1.0 0.00 0.00 0.00 49 1013.3
20260901051539 80 10 0.0 1.0 0.00 0.00 0.00 54 1013.2
20260901050030 78 10 0.0 0.0 0.00 0.00 0.00 57 1013.1
20260901044525 77 10 0.0 1.0 0.00 0.00 0.00 58 1013.1
20260901043023 76 10 0.0 0.0 0.00 0.00 0.00 58 1012.9
20260901041517 76 10 0.0 1.0 0.00 0.00 0.00 56 1012.8
20260901040015 76 10 0.0 1.0 0.00 0.00 0.00 55 1012.7
20260901034515 76 10 0.0 1.0 0.00 0.00 0.00 54 1012.6
20260901033012 77 10 0.0 1.0 0.00 0.00 0.00 53 1012.5
20260901031510 77 10 0.0 1.0 0.00 0.00 0.00 52 1012.5
20260901030008 77 10 0.0 1.0 0.00 0.00 0.00 51 1012.5
20260901024506 78 10 0.0 0.0 0.00 0.00 0.00 50 1012.5
20260901023024 78 10 0.0 0.0 0.00 0.00 0.00 49 1012.5
20260901021514 78 10 0.0 2.0 0.00 0.00 0.00 48 1012.4
20260901020004 78 11 0.0 2.0 0.00 0.00 0.00 48 1012.5
20260901014503 78 10 0.0 2.0 0.00 0.00 0.00 48 1012.4
20260901013003 78 10 0.0 2.0 0.00 0.00 0.00 50 1012.5
20260901011501 78 10 0.0 1.0 0.00 0.00 0.00 49 1012.5
20260901010002 78 10 0.0 1.0 0.00 0.00 0.00 48 1012.5
20260901004600 78 10 0.0 3.0 0.00 0.00 0.00 49 1012.6
20260901003058 78 12 0.0 1.0 0.00 0.00 0.00 48 1012.6
20260901001558 79 12 0.0 2.0 0.00 0.00 0.00 48 1012.6
20260901000100 79 12 0.0 1.0 0.00 0.00 0.00 46 1012.7
20260831234552 80 12 0.0 0.0 0.00 0.00 0.00 46 1012.9
20260831233049 80 12 0.0 0.0 0.00 0.00 0.00 45 1013.0
20260831231549 80 12 0.0 0.0 0.00 0.00 0.00 43 1013.1
20260831230047 81 12 0.0 2.0 0.00 0.00 0.00 42 1013.2
20260831224546 81 12 0.0 3.0 0.00 0.00 0.00 42 1013.3
20260831223044 80 14 1.0 5.0 0.00 0.00 0.00 43 1013.3
20260831221542 80 299 0.0 3.0 0.00 0.00 0.00 43 1013.5
20260831220041 80 298 0.0 3.0 0.00 0.00 0.00 43 1013.6
20260831214539 80 298 0.0 1.0 0.00 0.00 0.00 43 1013.7
20260831213039 80 298 0.0 3.0 0.00 0.00 0.00 43 1013.7
20260831211537 81 298 0.0 2.0 0.00 0.00 0.00 44 1013.6
20260831210039 81 298 0.0 2.0 0.00 0.00 0.00 44 1013.6
20260831204537 82 298 0.0 0.0 0.00 0.00 0.00 44 1013.6
20260831203034 82 298 0.0 4.0 0.00 0.00 0.00 44 1013.6
20260831201533 82 298 0.0 2.0 0.00 0.00 0.00 42 1013.6
20260831200037 82 298 0.0 4.0 0.00 0.00 0.00 42 1013.7
20260831194538 83 294 0.0 5.0 0.00 0.00 0.00 41 1013.5
20260831193032 83 289 0.0 3.0 0.00 0.00 0.00 41 1013.5
20260831191535 83 296 1.0 5.0 0.00 0.00 0.00 41 1013.4
20260831190030 84 311 0.0 3.0 0.00 0.00 0.00 41 1013.2
20260831184532 84 311 0.0 2.0 0.00 0.00 0.00 40 1013.0
20260831183029 84 312 1.0 6.0 0.00 0.00 0.00 40 1012.9
20260831181529 84 6 0.0 3.0 0.00 0.00 0.00 40 1012.8
20260831180029 84 8 0.0 3.0 0.00 0.00 0.00 40 1012.8
20260831174531 85 8 1.0 3.0 0.00 0.00 0.00 41 1012.7
20260831173027 85 102 0.0 2.0 0.00 0.00 0.00 40 1012.7
20260831171527 86 102 0.0 2.0 0.00 0.00 0.00 41 1012.6
20260831170027 86 102 0.0 3.0 0.00 0.00 0.00 40 1012.6
20260831164526 87 102 0.0 3.0 0.00 0.00 0.00 39 1012.5
20260831163028 87 102 0.0 3.0 0.00 0.00 0.00 38 1012.5
20260831161531 88 100 0.0 2.0 0.00 0.00 0.00 38 1012.5
20260831160024 89 97 1.0 4.0 0.00 0.00 0.00 36 1012.5
20260831154524 90 98 0.0 7.0 0.00 0.00 0.00 36 1012.5
20260831153023 91 82 0.0 4.0 0.00 0.00 0.00 36 1012.4
20260831151523 91 52 0.0 5.0 0.00 0.00 0.00 36 1012.4
20260831150022 92 101 3.0 9.0 0.00 0.00 0.00 35 1012.3
20260831144521 92 332 0.0 8.0 0.00 0.00 0.00 35 1012.3
20260831143019 92 308 1.0 8.0 0.00 0.00 0.00 35 1012.5
20260831141518 92 135 2.0 8.0 0.00 0.00 0.00 36 1012.7
20260831140018 93 77 1.0 6.0 0.00 0.00 0.00 36 1012.8
20260831134521 92 73 3.0 9.0 0.00 0.00 0.00 37 1012.7